Weather History for Jacksonville Craig, FL

Change the Weather History Date:

Sunday, March 10, 2013

  Actual Average Record
Temperature  
Mean Temperature 60 °F -  
Max Temperature 73 °F 69 °F 84 °F (2006)
Min Temperature 48 °F 50 °F 39 °F (1998)
Degree Days  
Heating Degree Days 4    
Growing Degree Days 10 (Base 50)    
Moisture  
Dew Point 51 °F    
Average Humidity 68    
Maximum Humidity 93    
Minimum Humidity 44    
Precipitation  
Precipitation 0.00 in - - ()
Sea Level Pressure  
Sea Level Pressure 30.18 in    
Wind  
Wind Speed 5 mph (ESE)    
Max Wind Speed 14 mph    
Max Gust Speed 23 mph    
Visibility 10 miles    
Events      
Averages and records for this station are not official NWS values.
T = Trace of Precipitation, MM = Missing Value Source: NWS Daily Summary

Daily Weather History Graph

Daily Weather History Graph

Search for Another Location

Airport:

Trip Planner

Search our weather history database for the weather conditions in past years. The results will help you decide how hot, cold, wet, or windy it might be!

Date:

Astronomy

Mar. 10, 2013 Rise Set
Actual Time 7:41 AM EDT 7:31 PM EDT
Civil Twilight 7:17 AM EDT 7:55 PM EDT
Nautical Twilight 6:49 AM EDT 8:23 PM EDT
Astronomical Twilight 6:22 AM EDT 8:50 PM EDT
Moon 6:38 AM EDT (3/10) 6:38 PM EDT (3/10)
Length of Visible Light 12h 37m
Length of Day
11h 49m
Waning Crescent, 2% of the Moon is Illuminated
Mar 10
Waning Crescent
Mar 11
New
Mar 19
First Quarter
Mar 27
Full
Apr 3
Last Quarter

Hourly Weather History & Observations

Time (EDT) Temp. Dew Point Humidity Pressure Visibility Wind Dir Wind Speed Gust Speed Precip Events Conditions
12:53 AM 52.0 °F 46.9 °F 83% 30.22 in 10.0 mi ENE 3.5 mph - N/A   Clear
1:53 AM 51.1 °F 46.9 °F 86% 30.20 in 10.0 mi East 3.5 mph - N/A   Clear
3:53 AM 50.0 °F 46.9 °F 89% 30.19 in 10.0 mi Calm Calm - N/A   Clear
4:53 AM 48.9 °F 46.9 °F 93% 30.18 in 10.0 mi Calm Calm - N/A   Clear
5:53 AM 50.0 °F 46.9 °F 89% 30.17 in 10.0 mi Calm Calm - N/A   Clear
6:53 AM 52.0 °F 48.9 °F 89% 30.19 in 10.0 mi Calm Calm - N/A   Clear
8:53 AM 55.9 °F 53.1 °F 90% 30.24 in 10.0 mi Calm Calm - N/A   Clear
9:53 AM 64.0 °F 55.0 °F 73% 30.23 in 10.0 mi NNE 3.5 mph - N/A   Clear
10:53 AM 68.0 °F 54.0 °F 61% 30.22 in 10.0 mi East 8.1 mph - N/A   Clear
11:53 AM 71.1 °F 52.0 °F 51% 30.21 in 10.0 mi East 6.9 mph - N/A   Mostly Cloudy
12:53 PM 73.0 °F 53.1 °F 49% 30.19 in 10.0 mi SE 13.8 mph 21.9 mph N/A   Partly Cloudy
1:53 PM 73.0 °F 51.1 °F 46% 30.17 in 10.0 mi ESE 13.8 mph 23.0 mph N/A   Partly Cloudy
2:53 PM 73.0 °F 50.0 °F 44% 30.15 in 10.0 mi SE 12.7 mph 21.9 mph N/A   Partly Cloudy
3:53 PM 73.0 °F 51.1 °F 46% 30.15 in 10.0 mi ESE 13.8 mph 21.9 mph N/A   Mostly Cloudy
4:53 PM 72.0 °F 51.1 °F 48% 30.16 in 10.0 mi SE 12.7 mph 19.6 mph N/A   Scattered Clouds
5:53 PM 71.1 °F 50.0 °F 47% 30.16 in 10.0 mi ESE 10.4 mph 19.6 mph N/A   Clear
6:53 PM 69.1 °F 52.0 °F 54% 30.16 in 10.0 mi SE 8.1 mph 17.3 mph N/A   Clear
7:53 PM 66.0 °F 52.0 °F 60% 30.16 in 10.0 mi ESE 5.8 mph - N/A   Clear
8:53 PM 63.0 °F 53.1 °F 70% 30.17 in 10.0 mi ESE 3.5 mph - N/A   Clear
9:53 PM 63.0 °F 53.1 °F 70% 30.17 in 10.0 mi ESE 5.8 mph - N/A   Clear
10:53 PM 63.0 °F 53.1 °F 70% 30.17 in 10.0 mi ESE 4.6 mph - N/A   Clear
11:53 PM 61.0 °F 53.1 °F 75% 30.16 in 10.0 mi ESE 3.5 mph - N/A   Clear
12:53 AM 57.9 °F 53.1 °F 84% 30.15 in 10.0 mi Calm Calm - N/A   Clear